Dewpoint
60 60 54 47 49 40 29 36 24 25 29 20 19 18 15 13 15 12 10 10 8 27 22 23 20 37 48 55 56 58 58 57 58 53 53 63 65 65 66 67 68 69 71 72 73 73 74 74 74 74 74 74 74 74 74 74 74 74 73 74 74 73 73 73 73 73 72 72 72 72 72 72 72 72 71 71 71 71 71 70 70 70 71 71 69 69 69 69 69 69 68 67 67 68 68 68 69
52 48 49 47 40 32 32 29 29 24 25 16 15 15 16 17 17 10 8 8 26 28 27 29 28 45 55 57 58 57 59 60 60 61 64 65 65 65 67 68 69 70 71 71 72 73 73 74 74 74 74 74 74 74 74 74 74 74 74 74 74 73 73 73 73 72 72 72 71 72 71 71 71 71 71 70 71 71 72 71 70 70 70 69 69 69 69 68 68 69 68 68 68 67 68 68 68
45 46 42 43 40 38 35 32 23 22 16 12 11 12 12 11 13 15 15 15 31 30 31 33 49 49 53 57 56 57 57 60 61 63 64 65 64 66 67 69 70 70 70 70 71 72 73 73 74 74 74 74 74 74 73 73 73 73 73 73 73 73 73 73 72 72 72 72 72 71 71 71 71 70 70 70 71 71 71 71 70 70 69 69 69 68 68 68 68 68 68 68 67 67 67 67 67
57 50 46 45 34 36 36 34 28 21 17 15 15 15 12 11 10 9 35 36 34 31 30 35 51 56 54 56 56 57 57 58 61 64 64 65 65 67 68 69 69 69 69 69 70 72 73 73 74 74 74 74 74 74 73 73 73 73 74 73 73 73 73 72 72 72 72 72 72 71 71 71 71 71 71 71 71 71 71 71 70 69 69 69 68 68 67 67 67 68 68 67 67 68 67 68 67
56 51 48 47 33 37 38 35 29 22 19 17 14 15 16 11 10 18 25 33 34 32 29 42 54 58 60 58 58 57 58 59 61 65 65 66 67 67 67 67 67 67 68 69 71 72 73 74 74 74 73 73 73 73 73 73 73 73 73 73 73 73 72 72 72 72 71 71 71 71 71 71 71 71 71 71 71 71 71 71 71 70 70 70 71 72 71 70 68 67 68 68 68 68 68 67 68
48 44 45 47 32 30 24 28 26 27 24 20 17 16 15 6 11 11 17 17 31 29 27 46 52 57 59 61 60 59 62 61 64 65 65 66 67 67 66 66 66 66 68 69 71 72 73 74 73 73 73 73 73 73 73 73 73 73 73 73 73 72 72 72 72 71 71 71 71 71 71 71 71 71 72 72 71 70 70 70 70 70 69 68 69 68 67 67 68 68 69 68 68 68 68 68 68
41 41 39 40 32 27 29 28 26 22 21 24 23 21 19 9 8 13 12 10 12 21 28 49 57 57 57 59 60 61 61 62 64 65 66 67 68 67 66 65 66 67 68 70 71 72 73 73 73 73 73 73 73 73 73 73 73 73 73 72 72 72 72 72 72 71 71 71 71 71 71 71 71 71 72 72 71 70 70 70 70 69 69 70 68 68 67 69 70 69 68 68 68 68 68 67 67
41 33 30 24 22 25 24 23 24 26 25 18 16 19 17 8 6 5 6 10 12 13 29 43 53 54 55 59 59 62 62 66 67 67 67 67 68 66 65 65 66 68 68 69 71 72 73 73 73 73 73 73 73 73 73 73 73 72 72 72 72 72 72 72 72 72 72 71 71 71 71 71 71 71 72 71 71 71 70 69 69 69 68 68 68 68 69 70 70 69 68 69 69 68 68 68 68
33 29 34 27 23 24 20 22 22 23 23 20 17 17 36 9 10 8 4 9 11 17 24 41 54 54 58 59 60 62 64 67 67 68 67 68 67 65 65 65 67 68 68 70 71 72 72 73 73 73 73 73 73 73 73 72 72 72 72 72 72 72 72 72 72 72 72 71 71 70 71 71 71 72 71 71 71 71 70 69 69 68 68 68 68 68 70 70 69 69 69 69 69 69 68 68 68
29 27 28 25 15 16 10 12 15 17 16 14 10 8 5 9 10 7 8 5 7 15 22 34 47 55 58 58 59 62 63 68 68 67 68 69 69 67 66 67 68 68 69 70 71 71 72 73 73 73 73 73 73 73 73 72 72 72 72 72 72 72 73 72 72 71 71 71 71 71 71 71 71 71 71 71 71 71 70 69 69 69 68 68 69 69 69 70 70 69 69 69 68 69 68 67 67
26 23 33 29 26 16 12 8 9 10 9 8 4 3 5 6 6 9 11 9 7 8 35 52 55 56 60 60 61 65 65 66 67 67 68 69 69 66 66 68 69 69 69 70 71 71 72 72 73 72 72 73 72 72 72 72 72 72 72 72 72 72 72 72 72 71 71 71 71 71 71 71 71 71 71 71 71 70 70 69 69 69 69 69 70 70 70 70 70 69 69 69 68 68 68 67 67
24 23 21 20 21 19 14 8 5 6 7 5 1 1 4 7 7 10 8 7 5 3 9 49 55 60 59 59 60 64 65 66 66 67 69 69 69 70 69 69 69 69 69 69 70 71 71 72 72 73 72 72 72 72 72 72 72 72 72 72 72 72 72 72 72 71 71 71 71 71 71 71 71 71 70 70 70 70 69 69 69 70 70 70 69 69 69 69 69 69 69 68 68 68 68 68 67
22 18 17 19 20 20 19 16 13 14 8 6 1 10 4 6 7 6 7 11 6 2 2 43 59 58 59 60 62 65 64 66 67 68 68 68 68 69 69 68 68 68 69 69 70 70 71 71 71 72 72 73 72 72 72 72 72 72 72 72 72 72 72 71 71 71 71 71 71 71 71 71 71 70 70 70 70 70 70 70 70 70 70 69 69 68 69 69 69 69 68 68 68 68 68 68 67
17 15 22 16 15 11 7 4 4 2 -1 3 20 11 13 12 12 14 7 11 8 8 44 56 58 61 60 61 62 62 64 66 67 68 67 68 69 70 68 67 68 68 68 68 69 70 70 70 71 71 71 71 71 72 72 72 72 72 72 71 72 72 71 71 71 70 70 71 71 71 71 70 70 70 70 70 70 69 70 69 69 69 69 69 68 68 68 68 68 68 68 68 68 67 67 67 67
16 19 19 19 13 14 11 3 1 0 -3 3 9 13 14 15 15 19 18 18 17 51 53 58 59 56 58 60 60 61 64 66 68 67 67 69 69 69 68 68 68 68 68 68 68 68 69 70 71 71 71 71 71 71 71 71 71 72 72 72 71 71 71 71 71 71 71 71 71 71 71 71 71 70 70 70 70 69 69 69 69 69 69 68 68 67 68 68 68 68 68 68 67 67 66 66 67
14 15 20 20 14 12 12 12 11 4 -0 4 6 13 10 13 17 18 22 21 20 28 48 48 51 57 60 59 61 63 65 67 69 69 69 69 69 69 69 66 66 67 67 67 67 68 69 70 70 70 70 70 70 70 71 71 72 72 72 71 71 71 71 71 70 70 70 70 70 70 70 70 71 70 70 70 70 70 69 69 69 69 68 68 68 68 68 68 68 68 67 68 67 67 67 67 67
12 13 15 17 13 12 10 10 8 6 -0 6 8 7 6 10 22 21 23 21 28 48 49 50 53 57 56 60 62 66 68 68 68 68 68 68 68 68 68 66 66 66 67 68 68 69 69 69 69 70 70 69 69 70 70 70 71 72 71 71 71 70 70 70 70 69 69 69 68 69 69 68 70 70 70 70 70 70 70 69 69 69 68 68 68 68 67 67 67 67 68 67 68 67 67 67 67
14 16 14 13 11 9 10 9 8 5 6 8 9 9 8 7 19 25 22 22 49 51 50 50 53 54 60 62 66 67 67 66 66 66 66 66 66 67 67 66 66 66 66 67 68 69 69 69 69 69 69 69 69 69 69 69 70 70 69 69 69 69 69 70 69 68 69 67 67 67 67 68 68 69 69 70 69 69 69 69 69 68 68 68 67 67 67 67 67 67 67 66 67 66 67 65 66
9 15 15 9 10 9 10 10 11 4 3 8 13 10 9 10 26 32 29 24 33 51 52 54 56 60 62 64 64 64 65 65 66 66 65 65 65 66 66 66 66 65 66 66 68 68 68 68 69 69 69 68 68 68 68 68 69 68 68 68 69 69 69 69 68 68 66 66 66 67 68 67 67 69 70 70 70 69 69 69 69 68 68 68 67 67 67 66 66 65 66 65 65 66 64 64 63
9 12 11 9 9 8 9 9 8 7 8 8 8 13 11 11 11 34 34 29 35 49 52 56 58 60 62 64 63 62 63 64 65 65 64 64 65 65 65 66 66 66 66 66 67 67 68 68 68 69 68 67 67 67 67 67 68 67 68 68 68 68 67 67 67 66 66 66 67 66 66 67 67 67 69 69 70 69 68 69 69 69 68 68 67 67 66 66 66 66 66 66 68 67 63 62 62
11 9 9 9 10 9 9 9 9 5 6 10 10 11 9 8 8 11 29 33 42 51 55 58 59 61 63 64 63 62 62 62 63 64 64 64 64 65 66 66 66 66 66 67 66 66 67 68 68 68 68 67 67 67 67 67 67 67 67 67 65 66 67 67 67 66 65 66 67 67 67 67 67 68 69 68 68 68 68 67 68 67 67 67 68 66 65 66 66 64 64 65 64 63 62 61 61
8 10 10 10 10 10 11 11 7 5 8 6 9 8 12 7 7 9 10 31 43 51 54 59 61 62 62 63 64 64 63 63 63 63 63 63 64 64 66 66 66 66 66 66 65 66 67 67 68 68 68 67 66 66 66 67 67 67 66 65 65 66 67 67 67 66 66 66 67 68 67 67 67 68 67 67 67 67 67 67 66 66 65 66 68 66 65 64 64 66 65 63 62 61 61 61 61
5 5 9 11 11 10 11 9 6 8 7 6 6 7 7 5 5 11 9 16 49 52 54 58 61 61 62 62 63 64 64 63 63 63 63 63 64 65 66 66 65 65 65 66 66 66 66 67 67 68 68 67 67 67 67 67 67 68 67 66 65 66 67 67 67 66 66 66 67 68 66 66 67 67 66 66 66 67 67 66 66 66 65 64 66 65 64 65 65 65 64 65 65 64 63 62 60
7 3 7 9 11 10 10 8 7 7 10 12 10 9 6 7 3 10 34 49 52 53 54 56 61 62 61 62 62 63 64 64 64 64 64 63 64 65 65 64 64 65 65 65 65 66 67 67 68 68 68 67 67 68 67 67 67 66 67 68 66 67 67 67 67 66 66 66 68 68 67 66 67 66 65 65 66 66 66 66 66 66 65 65 66 65 64 65 64 64 65 65 63 62 60 60 58
5 4 3 6 10 10 9 8 6 10 10 8 12 8 6 8 11 7 33 45 49 51 52 58 62 62 62 62 63 63 64 64 64 64 65 64 65 66 65 65 64 64 64 64 65 66 66 67 68 68 67 67 67 68 66 66 66 66 66 66 66 68 65 66 67 67 66 67 67 67 67 66 66 65 65 65 65 65 65 65 65 65 65 65 66 65 65 65 64 65 64 64 63 62 62 61 60
5 3 5 7 8 9 9 8 7 4 6 7 6 5 2 2 7 6 40 43 44 48 52 59 62 62 63 63 63 63 64 63 64 64 64 65 65 64 63 64 65 64 64 64 64 65 66 67 67 67 66 66 67 67 66 66 65 65 65 64 65 67 65 65 67 67 67 67 66 66 67 66 65 66 65 65 65 65 65 65 65 64 65 64 65 64 65 65 64 65 65 65 65 64 63 62 61
4 2 2 4 5 7 8 8 8 10 14 8 6 4 1 2 12 3 28 43 44 49 51 59 60 61 61 62 62 63 63 63 64 64 65 64 64 63 63 64 65 64 65 64 65 65 66 66 67 66 66 67 67 66 66 65 65 65 65 65 66 66 65 66 67 67 67 67 66 66 67 67 66 66 65 65 65 65 65 65 64 64 65 65 65 65 65 65 64 64 64 64 64 65 64 63 62
3 2 1 2 5 6 7 6 5 7 10 11 11 5 2 2 5 2 6 43 44 48 49 55 59 59 60 60 61 62 63 63 65 64 64 64 64 64 62 64 64 64 64 64 65 66 66 67 67 66 66 67 66 66 67 66 66 66 66 66 66 65 65 66 67 67 68 66 66 66 66 66 66 66 65 65 65 65 65 64 65 65 64 65 65 64 65 65 65 65 65 65 65 64 64 63 62
3 4 3 1 0 2 7 5 5 8 8 8 7 5 2 2 -1 2 3 20 43 45 47 52 58 59 59 59 60 62 62 62 64 64 64 64 64 64 63 65 63 63 64 64 64 65 66 66 66 66 67 66 66 66 66 66 65 66 66 65 66 66 66 67 66 66 66 66 65 65 66 66 66 66 65 65 66 65 65 64 64 65 65 65 65 65 65 65 65 65 65 65 65 65 64 62 62
4 5 4 3 4 3 6 12 7 6 9 9 5 4 2 -0 -1 -1 2 4 22 44 45 51 57 59 59 59 61 62 63 63 64 64 64 65 65 64 64 65 63 63 63 64 64 64 65 66 66 67 67 67 66 66 66 65 65 65 65 65 67 66 67 66 66 65 66 66 66 66 66 66 66 65 65 64 64 63 63 63 63 64 65 66 65 64 65 64 65 65 64 65 66 64 63 62 62
4 5 5 8 8 6 9 9 6 3 6 8 1 4 5 1 -0 -1 1 3 8 42 42 49 54 57 58 60 60 62 64 64 64 64 65 64 64 65 64 63 64 63 64 64 64 64 66 66 66 66 66 66 66 66 66 65 65 65 65 65 67 67 67 66 66 66 66 66 66 67 67 66 66 66 66 64 63 63 63 63 63 64 65 65 64 64 65 64 65 65 64 64 64 63 63 63 62
6 3 5 6 6 7 7 8 6 2 4 5 2 12 5 2 -1 -1 -0 0 2 33 40 46 50 52 57 59 60 62 63 63 64 64 64 64 64 64 63 63 64 64 64 63 64 64 65 66 66 66 65 64 65 66 66 66 66 65 66 68 67 67 66 66 67 66 67 67 66 66 66 66 66 66 65 64 63 63 63 62 63 64 65 65 64 64 64 64 65 64 64 64 63 63 63 62 62
11 10 23 13 10 5 4 4 4 4 2 3 3 5 2 1 1 0 0 -1 11 20 41 44 49 50 57 59 61 62 62 62 62 63 64 64 64 64 63 63 64 64 64 63 63 64 66 66 66 65 65 65 65 66 66 66 66 66 66 66 66 66 66 66 67 67 67 66 66 66 66 66 66 65 64 65 64 63 63 64 63 64 65 64 63 63 64 64 63 64 63 63 63 62 63 62 62
17 15 11 15 9 10 4 4 2 2 1 1 3 2 5 9 2 1 0 -1 16 20 41 45 47 51 56 57 60 61 61 61 61 62 63 63 64 64 63 64 64 64 64 64 64 64 65 66 66 66 66 66 66 66 65 65 65 65 64 64 66 66 65 66 66 67 65 65 65 65 66 66 66 65 64 64 64 64 64 64 63 63 64 64 63 63 62 63 63 63 63 62 63 62 62 62 61
16 20 15 13 7 6 4 2 1 0 -1 1 5 4 3 0 1 1 0 -1 4 22 22 44 47 51 54 57 59 60 60 61 61 62 63 63 63 64 64 63 63 64 64 64 64 65 66 65 66 66 65 65 65 65 64 64 64 64 63 63 64 63 64 65 66 65 64 64 64 65 66 66 66 65 65 65 64 63 63 63 63 63 63 64 64 62 61 63 62 62 63 62 63 63 62 61 61
12 12 16 12 14 5 3 3 3 0 1 -1 3 3 1 0 1 2 8 15 9 23 26 44 49 52 55 57 59 60 60 61 62 63 63 63 63 64 63 63 63 64 64 64 65 66 65 65 65 65 65 65 64 64 64 63 62 62 62 62 63 63 63 64 64 63 63 63 64 65 65 65 65 64 65 64 63 63 62 63 63 63 63 63 62 61 60 62 62 61 62 62 63 63 61 61 61
10 8 7 6 7 6 5 3 1 0 -1 1 4 6 0 1 2 6 7 12 14 22 28 47 51 52 54 56 58 59 60 60 61 62 63 63 63 64 63 63 63 64 64 63 61 64 64 65 65 64 64 64 64 63 62 61 61 61 61 61 60 61 61 61 61 61 61 62 63 63 64 65 65 65 66 65 64 66 63 63 63 63 63 63 61 60 60 61 61 61 62 62 62 61 61 62 61
19 16 11 7 6 10 10 3 2 -2 14 3 5 7 2 3 6 8 10 10 17 21 27 48 49 50 52 55 56 58 59 60 60 61 62 62 62 63 63 63 63 63 63 63 62 63 65 65 64 64 64 63 63 63 62 62 61 61 61 61 61 61 60 59 58 60 60 62 63 63 63 63 64 65 66 65 65 64 63 63 63 62 62 63 62 62 61 62 61 62 62 61 61 61 60 62 62
22 18 15 13 11 11 12 13 13 4 9 8 4 3 8 9 8 9 17 17 20 28 30 48 48 50 51 53 55 57 59 59 60 60 62 62 62 62 62 62 63 62 62 61 62 63 64 65 64 64 64 64 64 64 63 63 63 63 63 60 58 57 59 57 57 59 60 61 62 62 63 63 64 64 65 65 64 64 63 62 63 62 62 64 62 61 62 62 62 62 62 61 61 61 61 62 61
20 20 17 14 13 14 13 16 11 8 7 11 7 5 14 17 13 9 16 26 25 22 27 46 48 48 52 53 56 56 58 59 59 60 61 60 59 60 61 61 61 60 60 60 61 62 64 64 64 64 64 64 64 64 64 63 61 61 60 61 59 58 56 58 58 59 59 60 60 62 64 63 63 64 64 64 64 65 64 63 63 62 62 63 62 62 61 62 61 61 61 61 61 60 59 60 62
24 23 17 15 14 13 12 17 21 31 29 33 21 26 24 21 11 13 19 22 27 24 24 31 46 51 54 55 56 56 57 58 58 60 59 58 59 60 60 60 59 59 60 60 60 62 64 65 65 64 64 64 64 63 62 61 61 60 60 58 58 57 56 55 55 57 59 61 60 59 58 60 60 63 64 64 64 63 63 63 63 63 63 63 63 62 62 62 61 61 61 61 59 59 58 58 59
25 30 22 19 18 18 18 23 19 24 18 30 15 16 18 21 16 11 14 15 19 25 25 29 50 52 54 53 53 55 57 57 57 57 57 58 59 60 60 59 59 59 61 61 61 62 64 65 65 64 64 63 63 62 61 60 59 59 58 55 54 54 54 54 55 55 56 57 58 59 60 60 61 60 61 63 64 63 62 62 63 63 63 64 63 63 63 62 62 62 61 61 60 59 58 58 58
22 25 26 21 16 18 19 18 18 16 15 23 30 11 17 23 16 17 18 13 7 26 26 39 51 51 51 52 53 54 56 56 56 56 55 57 58 59 59 59 59 60 61 61 61 62 64 65 65 64 63 63 62 61 61 60 60 60 59 56 55 54 55 58 56 56 56 58 59 58 58 59 59 59 60 60 61 62 62 62 63 63 63 63 64 63 62 62 63 63 63 62 61 61 59 58 58
20 29 20 16 13 15 19 17 14 13 28 32 25 18 14 16 19 18 19 18 10 25 27 46 51 50 50 52 54 55 56 56 55 56 56 57 58 58 59 59 60 61 61 62 62 62 63 64 64 64 63 62 62 61 61 61 60 59 58 58 60 59 58 56 57 55 56 58 57 58 59 57 56 59 59 58 60 60 60 61 63 63 62 62 63 62 62 62 62 63 63 62 62 61 60 59 58
22 28 18 16 12 12 11 11 16 20 20 16 20 16 16 17 21 24 19 14 19 25 30 46 50 51 52 52 54 55 56 56 57 57 57 57 58 58 59 59 60 61 61 61 62 63 63 64 63 63 62 61 61 61 61 61 60 60 59 59 59 59 59 56 55 55 55 56 56 57 58 56 57 57 56 58 58 59 59 58 59 59 59 62 62 61 61 62 62 62 61 61 61 61 61 60 59
20 15 14 12 11 9 11 12 10 30 18 17 22 29 15 16 25 18 19 18 17 20 27 43 50 51 52 52 53 55 56 56 57 58 58 58 58 58 59 60 60 60 61 62 62 62 63 63 62 61 61 61 61 61 61 61 60 60 59 59 58 57 57 54 55 55 54 55 57 58 56 55 56 57 57 58 57 58 60 60 59 59 58 59 60 61 61 62 62 62 62 62 62 60 60 60 59
19 14 12 11 10 12 14 17 17 20 15 22 27 32 17 16 25 19 24 24 18 24 44 49 50 50 51 52 52 54 55 56 56 57 58 58 59 59 59 59 60 60 61 61 62 62 62 62 61 60 60 60 61 61 60 60 60 60 59 59 58 57 55 55 54 53 54 57 54 56 55 54 57 56 58 58 57 59 59 60 58 58 58 60 59 59 59 61 62 62 62 62 62 61 60 60 60
8 19 13 14 13 18 16 19 17 11 15 22 19 24 24 15 22 32 33 35 34 38 45 48 47 47 48 50 51 56 56 56 56 57 57 58 59 59 59 59 59 60 61 61 61 61 60 60 59 59 59 60 61 60 59 60 60 59 59 59 59 58 55 54 53 53 55 55 54 55 57 57 55 57 56 54 54 58 58 57 58 57 57 58 58 59 59 60 60 61 62 61 61 61 60 60 60
7 12 13 11 17 16 11 9 8 8 16 19 19 17 21 19 24 38 36 36 37 42 45 47 47 48 49 50 52 55 55 56 56 56 56 57 57 57 58 58 59 60 60 61 60 60 60 60 59 59 59 59 60 60 59 59 59 59 59 59 60 58 55 53 54 54 55 55 55 57 56 55 56 57 56 55 54 56 57 57 57 56 55 55 56 57 58 59 59 59 60 61 61 60 60 60 60
9 9 16 12 11 12 8 12 12 11 18 24 22 21 17 34 32 35 36 38 39 43 46 47 47 48 51 53 53 54 55 56 56 56 57 56 56 57 58 58 59 59 59 60 60 60 60 59 59 59 59 60 60 59 59 59 59 59 59 59 59 56 55 55 55 54 55 55 56 55 55 54 56 56 54 53 55 56 57 58 58 57 56 56 56 57 57 57 58 58 59 59 60 60 60 60 60
10 12 12 20 17 18 9 12 8 13 16 22 13 21 21 21 30 35 36 38 39 42 46 47 48 49 51 52 53 54 55 55 57 56 56 56 56 57 57 57 58 58 59 60 59 59 59 59 59 59 59 59 59 58 58 57 58 59 59 60 59 57 56 56 56 56 55 55 56 54 56 56 56 56 56 56 57 57 58 57 54 53 53 53 53 55 56 55 56 57 58 58 58 59 59 59 59
17 14 13 14 20 19 12 17 21 19 16 23 21 22 31 30 39 35 36 36 41 44 44 46 47 49 51 52 53 53 54 56 56 57 57 57 57 56 56 57 57 59 60 60 60 59 58 58 59 59 59 60 58 58 57 57 57 58 59 59 59 57 56 56 56 56 56 55 55 57 57 56 55 54 54 55 57 54 54 54 55 55 55 56 56 56 54 54 54 54 55 55 56 57 53 53 54
31 10 12 16 25 22 21 24 29 19 22 15 23 28 31 34 34 32 35 35 39 43 44 45 45 47 50 51 52 52 53 56 58 58 58 58 58 58 58 58 59 60 60 60 60 60 59 59 59 60 60 59 59 58 58 58 58 58 59 59 59 57 56 55 55 56 56 56 57 56 55 54 54 54 56 56 56 56 55 54 53 54 54 54 54 55 54 53 52 51 51 51 51 52 52 50 49
23 16 16 10 18 33 21 19 22 17 14 19 27 24 26 29 27 33 33 40 42 42 43 46 49 49 47 49 51 53 55 56 57 57 57 58 59 60 60 59 59 59 59 59 60 60 60 60 60 60 60 59 59 59 59 59 59 59 59 58 58 57 57 55 56 56 55 54 56 55 54 53 53 54 55 56 55 52 53 55 53 52 52 54 55 53 53 54 53 51 50 50 52 52 52 51 53
14 16 14 20 22 21 30 24 16 14 12 13 22 30 33 33 31 40 40 41 43 43 45 47 50 53 54 54 54 55 56 56 56 56 56 57 58 58 58 58 57 58 58 59 60 61 60 60 61 60 60 60 60 60 60 60 60 60 59 58 58 58 57 56 55 55 54 54 54 54 53 53 54 55 54 52 51 51 51 51 50 51 51 50 50 52 51 49 48 48 50 51 51 51 51 51 51
12 17 16 25 31 30 23 19 20 21 23 17 22 29 29 38 36 42 44 44 43 44 44 47 49 51 52 54 55 55 55 55 56 56 56 57 58 58 58 57 57 57 57 58 60 59 59 60 59 60 61 61 60 61 60 60 59 59 59 58 58 58 56 54 53 54 54 53 54 55 53 52 53 54 53 52 51 51 50 49 50 50 49 49 50 50 48 48 48 50 50 50 49 50 50 50 51
12 11 19 19 30 33 27 33 15 20 23 25 26 25 30 37 40 45 45 45 45 45 46 48 49 50 51 52 53 54 55 56 56 56 57 56 57 58 58 58 58 58 58 58 59 59 60 60 59 59 60 60 61 61 60 60 60 59 59 58 58 58 57 55 55 55 54 53 53 54 52 52 54 52 52 51 51 50 49 50 48 49 48 49 49 47 49 49 50 49 48 48 48 49 50 49 50
20 16 23 16 28 23 14 23 28 25 22 22 24 26 33 41 44 47 47 48 47 46 48 48 49 50 50 51 52 54 54 55 56 57 56 57 57 57 58 58 58 57 57 57 58 58 60 59 59 59 60 61 60 60 60 60 60 59 59 59 58 58 57 57 56 56 53 52 53 54 53 52 52 51 52 52 50 49 49 48 47 47 48 49 49 49 50 49 47 46 46 50 49 48 49 50 50